Location: Austin
(30.3000°N, 97.7500°W)
Time: 08:28:05
(UTC-05:00)

DELTA 2 R/B (1) - Pass Details

Date: 19 September 2023
Orbit: 789 x 802 km, 39.6° (Epoch: 25 September)

Event Time Altitude Azimuth Distance (km) Brightness Sun altitude
Exits shadow 05:12:23 48° 342° (NNW) 1,023 4.0 -27.3°
Drops below altitude 10° 05:17:44 10° 55° (NE) 2,356 7.0 -26.2°
Sets 05:20:19 0° 61° (ENE) 3,289 8.1 -25.7°
